Weather History for Pontiac, MI

Change the Weather History Date:

Tuesday, June 25, 2013

  Actual Average Record
Temperature  
Mean Temperature 72 °F -  
Max Temperature 81 °F 80 °F 95 °F (1998)
Min Temperature 66 °F 59 °F 50 °F (2004)
Cooling Degree Days 8    
Growing Degree Days 22 (Base 50)    
Moisture  
Dew Point 66 °F    
Average Humidity 83    
Maximum Humidity 94    
Minimum Humidity 68    
Precipitation  
Precipitation 0.26 in - - ()
Sea Level Pressure  
Sea Level Pressure 29.90 in    
Wind  
Wind Speed 6 mph (WSW)    
Max Wind Speed 15 mph    
Max Gust Speed 28 mph    
Visibility 9 miles    
Events Rain , Thunderstorm    
Averages and records for this station are not official NWS values.
T = Trace of Precipitation, MM = Missing Value Source: NWS Daily Summary

Daily Weather History Graph

Daily Weather History Graph

Search for Another Location

Airport:

Trip Planner

Search our weather history database for the weather conditions in past years. The results will help you decide how hot, cold, wet, or windy it might be!

Date:

Astronomy

Jun. 25, 2013 Rise Set
Actual Time 5:57 AM EDT 9:15 PM EDT
Civil Twilight 5:21 AM EDT 9:50 PM EDT
Nautical Twilight 4:36 AM EDT 10:36 PM EDT
Astronomical Twilight 3:40 AM EDT 11:31 PM EDT
Moon 10:55 PM EDT (6/25) 8:39 AM EDT (6/25)
Length of Visible Light 16h 28m
Length of Day
15h 18m
Waning Gibbous, 93% of the Moon is Illuminated
Jun 25
Waning Gibbous
Jun 30
Last Quarter
Jul 8
New
Jul 15
First Quarter
Jul 22
Full

Hourly Weather History & Observations

Time (EDT) Temp. Dew Point Humidity Pressure Visibility Wind Dir Wind Speed Gust Speed Precip Events Conditions
12:53 AM 69.1 °F 66.0 °F 90% 29.91 in 10.0 mi SSE 3.5 mph - N/A   Mostly Cloudy
1:53 AM 71.1 °F 66.0 °F 84% 29.90 in 10.0 mi SW 5.8 mph - 0.01 in   Clear
2:53 AM 69.1 °F 64.0 °F 84% 29.90 in 10.0 mi WSW 6.9 mph - N/A   Clear
3:53 AM 68.0 °F 64.0 °F 87% 29.89 in 10.0 mi WSW 5.8 mph - N/A   Clear
4:53 AM 66.9 °F 64.0 °F 90% 29.91 in 10.0 mi WSW 5.8 mph - N/A   Partly Cloudy
5:53 AM 66.9 °F 64.0 °F 90% 29.92 in 10.0 mi SW 6.9 mph - 0.00 in   Mostly Cloudy
6:53 AM 68.0 °F 64.0 °F 87% 29.93 in 10.0 mi WSW 6.9 mph - N/A   Mostly Cloudy
7:53 AM 70.0 °F 64.0 °F 81% 29.96 in 10.0 mi West 15.0 mph 27.6 mph N/A Rain Light Rain
8:21 AM 68.0 °F 64.4 °F 88% 29.98 in 5.0 mi WSW 10.4 mph 24.2 mph 0.07 in Rain , Thunderstorm Thunderstorms and Rain
8:44 AM 66.2 °F 64.4 °F 94% 29.95 in 6.0 mi SW 4.6 mph - 0.11 in Rain Light Rain
8:53 AM 66.9 °F 64.9 °F 93% 29.93 in 9.0 mi Calm Calm - 0.11 in Rain Light Rain
9:53 AM 68.0 °F 66.0 °F 93% 29.96 in 10.0 mi WSW 6.9 mph - 0.01 in Rain Light Rain
10:53 AM 68.0 °F 66.0 °F 93% 29.88 in 10.0 mi Variable 4.6 mph - 0.01 in   Overcast
11:53 AM 71.1 °F 66.0 °F 84% 29.91 in 10.0 mi WSW 6.9 mph - 0.00 in   Overcast
12:53 PM 73.0 °F 66.0 °F 79% 29.92 in 2.5 mi SW 6.9 mph - 0.05 in Rain Heavy Rain
1:01 PM 73.4 °F 66.2 °F 78% 29.93 in 10.0 mi WSW 5.8 mph - 0.00 in Rain Light Rain
1:53 PM 73.9 °F 68.0 °F 82% 29.92 in 10.0 mi West 8.1 mph - 0.03 in   Overcast
2:33 PM 73.4 °F 66.2 °F 78% 29.92 in 10.0 mi West 8.1 mph 18.4 mph 0.00 in Rain Light Rain
2:53 PM 75.0 °F 66.9 °F 76% 29.88 in 10.0 mi Calm Calm - 0.00 in   Mostly Cloudy
3:53 PM 77.0 °F 68.0 °F 74% 29.86 in 10.0 mi NW 5.8 mph - N/A   Mostly Cloudy
4:53 PM 79.0 °F 68.0 °F 69% 29.87 in 10.0 mi WNW 5.8 mph - N/A   Mostly Cloudy
5:53 PM 79.0 °F 69.1 °F 72% 29.86 in 10.0 mi NW 10.4 mph - N/A   Mostly Cloudy
6:53 PM 79.0 °F 68.0 °F 69% 29.83 in 10.0 mi NW 10.4 mph - N/A   Scattered Clouds
7:53 PM 78.1 °F 66.9 °F 68% 29.84 in 10.0 mi NNW 3.5 mph - N/A   Scattered Clouds
8:53 PM 75.9 °F 66.9 °F 74% 29.83 in 10.0 mi Calm Calm - N/A   Mostly Cloudy
9:53 PM 73.9 °F 70.0 °F 87% 29.85 in 10.0 mi SW 3.5 mph - 0.02 in Rain Light Rain
10:53 PM 73.0 °F 70.0 °F 90% 29.85 in 10.0 mi SSW 4.6 mph - 0.02 in Rain Light Rain
11:37 PM 73.4 °F 69.8 °F 88% 29.86 in 10.0 mi SSW 4.6 mph - 0.00 in Thunderstorm Thunderstorm
11:53 PM 73.0 °F 69.1 °F 87% 29.86 in 10.0 mi SSW 6.9 mph - 0.00 in Thunderstorm Thunderstorm